Date String (YYYY-MM-DD hh:mm:ss) UTC,Instrument flags,Ambient pressure (hPa),Sample flow (lpm),Bypass flow (lpm),Sample temperature (°C),Ambient temperature (°C),ASC tube jacket temperature (°C),LED temperature (°C),Box temperature (°C),Sample RH (%),Span deviation,Mass concentration (μg/m³),Mass concentration (μg/m³),Mass concentration (μg/m³)
DateTimeUTC,F1_M11,P_M11,Q1_M11,Q2_M11,T1_M11,T2_M11,T3_M11,T4_M11,T5_M11,U1_M11,ZSPAN_M11,X2_M11,X0_M11,X1_M11
2021-10-12 06:00:00,,0816.8,5.00,0.00,30.1,29.0,00.0,39.2,31.8,13.0,0000.0,0005.35,0024.01,0003.54
2021-10-12 06:01:00,,0816.8,5.01,0.00,30.1,29.0,00.0,39.2,31.8,13.0,0000.0,0005.32,0024.76,0003.53
2021-10-12 06:02:00,,0816.8,4.99,0.00,30.1,29.0,00.0,39.2,31.8,13.0,0000.0,0005.34,0023.99,0003.53
2021-10-12 06:03:00,,0816.8,5.00,0.00,30.1,29.0,00.0,39.2,31.8,13.0,0000.0,0005.39,0023.78,0003.54
2021-10-12 06:04:00,,0816.9,5.01,0.00,30.0,29.0,00.0,39.2,31.8,13.0,0000.0,0005.41,0024.14,0003.54
2021-10-12 06:05:00,,0816.8,5.00,0.00,30.0,29.0,00.0,39.2,31.8,13.1,0000.0,0005.41,0024.98,0003.53
2021-10-12 06:06:00,,0816.8,4.99,0.00,30.0,29.0,00.0,39.2,31.7,13.1,0000.0,0005.40,0023.92,0003.52
2021-10-12 06:07:00,,0816.8,5.01,0.00,30.0,29.0,00.0,39.2,31.8,13.2,0000.0,0005.37,0022.27,0003.52
2021-10-12 06:08:00,,0816.9,5.00,0.00,30.0,29.0,00.0,39.2,31.7,13.2,0000.0,0005.45,0023.28,0003.53
2021-10-12 06:09:00,,0817.0,4.99,0.00,30.0,28.9,00.0,39.2,31.7,13.3,0000.0,0005.52,0024.30,0003.52
2021-10-12 06:10:00,,0817.3,5.00,0.00,30.0,28.9,00.0,39.2,31.7,13.3,0000.0,0005.55,0023.55,0003.51
2021-10-12 06:11:00,,0817.3,5.00,0.00,30.0,28.9,00.0,39.2,31.7,13.3,0000.0,0005.51,0022.08,0003.50
2021-10-12 06:12:00,,0816.9,5.00,0.00,29.9,28.9,00.0,39.2,31.6,13.3,0000.0,0005.54,0021.65,0003.52
2021-10-12 06:13:00,,0816.9,5.00,0.00,29.9,28.9,00.0,39.1,31.6,13.3,0000.0,0005.55,0020.74,0003.52
2021-10-12 06:14:00,,0817.0,4.99,0.00,29.9,28.9,00.0,39.1,31.6,13.3,0000.0,0005.51,0020.60,0003.52
2021-10-12 06:15:00,,0816.9,4.99,0.00,29.9,28.9,00.0,39.1,31.6,13.3,0000.0,0005.48,0020.54,0003.51
2021-10-12 06:16:00,,0816.9,5.02,0.00,29.9,28.9,00.0,39.1,31.6,13.3,0000.0,0005.49,0019.50,0003.52
2021-10-12 06:17:00,,0817.0,4.99,0.00,29.9,28.8,00.0,39.1,31.6,13.4,0000.0,0005.53,0018.95,0003.52
2021-10-12 06:18:00,,0817.0,5.00,0.00,29.9,28.8,00.0,39.1,31.6,13.4,0000.0,0005.54,0020.03,0003.53
2021-10-12 06:19:00,,0817.0,5.01,0.00,29.9,28.8,00.0,39.1,31.6,13.4,0000.0,0005.53,0018.89,0003.53
2021-10-12 06:20:00,,0817.0,5.01,0.00,29.9,28.8,00.0,39.1,31.6,13.4,0000.0,0005.54,0018.68,0003.55
2021-10-12 06:21:00,,0817.0,4.99,0.00,29.9,28.8,00.0,39.1,31.6,13.4,0000.0,0005.53,0018.81,0003.55
2021-10-12 06:22:00,,0817.0,5.02,0.00,29.9,28.8,00.0,39.1,31.6,13.4,0000.8,0005.53,0019.01,0003.56
2021-10-12 06:23:00,,0817.0,5.00,0.00,29.9,28.8,00.0,39.1,31.6,13.4,0000.2,0005.53,0019.21,0003.55
2021-10-12 06:24:00,,0816.9,5.00,0.00,29.8,28.8,00.0,39.1,31.6,13.4,0000.0,0005.48,0019.61,0003.54
2021-10-12 06:25:00,,0816.9,4.99,0.00,29.8,28.8,00.0,39.1,31.6,13.4,0000.0,0005.51,0019.20,0003.54
2021-10-12 06:26:00,,0816.9,5.00,0.00,29.8,28.8,00.0,39.0,31.6,13.4,0000.0,0005.53,0018.77,0003.53
2021-10-12 06:27:00,,0816.9,5.01,0.00,29.8,28.8,00.0,39.0,31.6,13.4,0000.0,0005.49,0019.80,0003.53
2021-10-12 06:28:00,,0816.9,4.99,0.00,29.8,28.8,00.0,39.0,31.6,13.4,0000.0,0005.44,0020.74,0003.53
2021-10-12 06:29:00,,0817.3,5.01,0.00,29.8,28.8,00.0,39.0,31.6,13.4,0000.0,0005.41,0020.94,0003.53
2021-10-12 06:30:00,,0817.2,5.00,0.00,29.8,28.8,00.0,39.0,31.5,13.4,0000.0,0005.37,0020.85,0003.52
2021-10-12 06:31:00,,0816.9,5.00,0.00,29.8,28.8,00.0,39.0,31.5,13.5,0000.0,0005.29,0020.67,0003.50
2021-10-12 06:32:00,,0816.9,5.02,0.00,29.8,28.8,00.0,39.0,31.5,13.5,0000.0,0005.32,0021.86,0003.49
2021-10-12 06:33:00,,0816.9,5.00,0.00,29.8,28.8,00.0,39.0,31.5,13.5,0000.0,0005.37,0021.57,0003.49
2021-10-12 06:34:00,,0816.9,4.99,0.00,29.8,28.8,00.0,39.0,31.5,13.5,0000.0,0005.42,0021.85,0003.49
2021-10-12 06:35:00,,0816.8,4.99,0.00,29.8,28.8,00.0,39.0,31.5,13.5,0000.0,0005.43,0021.30,0003.49
2021-10-12 06:36:00,,0816.8,5.00,0.00,29.8,28.8,00.0,39.0,31.5,13.5,0000.0,0005.41,0022.99,0003.49
2021-10-12 06:37:00,,0816.9,4.99,0.00,29.8,28.8,00.0,39.0,31.5,13.5,0000.0,0005.40,0023.48,0003.49
2021-10-12 06:38:00,,0817.0,5.00,0.00,29.8,28.8,00.0,39.0,31.5,13.5,0000.0,0005.46,0023.71,0003.48
2021-10-12 06:39:00,,0817.1,5.00,0.00,29.8,28.8,00.0,39.0,31.5,13.5,0000.0,0005.46,0023.54,0003.47
2021-10-12 06:40:00,,0816.9,5.00,0.00,29.8,28.8,00.0,39.0,31.5,13.5,0000.0,0005.46,0023.13,0003.47
2021-10-12 06:41:00,,0816.9,5.00,0.00,29.8,28.8,00.0,39.0,31.5,13.5,0000.0,0005.45,0023.23,0003.47
2021-10-12 06:42:00,,0816.7,5.01,0.00,29.8,28.8,00.0,39.0,31.5,13.5,0000.0,0005.47,0023.42,0003.47
2021-10-12 06:43:00,,0816.6,4.98,0.00,29.8,28.8,00.0,39.0,31.5,13.5,0000.0,0005.45,0022.79,0003.48
2021-10-12 06:44:00,,0816.6,5.00,0.00,29.8,28.8,00.0,39.0,31.5,13.5,0000.0,0005.37,0022.87,0003.47
2021-10-12 06:45:00,,0816.6,5.01,0.00,29.8,28.8,00.0,39.0,31.5,13.5,0000.0,0005.30,0022.68,0003.46
2021-10-12 06:46:00,,0816.6,5.01,0.00,29.8,28.7,00.0,39.0,31.5,13.5,0000.0,0005.30,0022.89,0003.46
2021-10-12 06:47:00,,0816.7,4.99,0.00,29.8,28.7,00.0,38.9,31.5,13.5,0000.0,0005.33,0021.34,0003.47
2021-10-12 06:48:00,,0816.7,4.99,0.00,29.7,28.7,00.0,38.9,31.4,13.5,0000.0,0005.33,0020.84,0003.47
2021-10-12 06:49:00,,0816.7,5.01,0.00,29.7,28.7,00.0,38.9,31.4,13.5,0000.0,0005.25,0019.28,0003.45
2021-10-12 06:50:00,,0816.8,5.01,0.00,29.7,28.7,00.0,38.9,31.5,13.5,0000.0,0005.26,0018.22,0003.45
2021-10-12 06:51:00,,0816.7,4.98,0.00,29.7,28.7,00.0,38.9,31.5,13.5,0000.0,0005.30,0018.12,0003.46
2021-10-12 06:52:00,,0816.6,4.99,0.00,29.7,28.7,00.0,38.9,31.4,13.5,0000.0,0005.37,0018.12,0003.46
2021-10-12 06:53:00,,0816.5,5.02,0.00,29.7,28.7,00.0,38.9,31.4,13.5,0000.0,0005.37,0017.56,0003.47
2021-10-12 06:54:00,,0816.5,5.00,0.00,29.7,28.7,00.0,38.9,31.4,13.5,0000.0,0005.34,0016.60,0003.46
2021-10-12 06:55:00,,0816.6,4.99,0.00,29.7,28.7,00.0,38.9,31.4,13.5,0000.0,0005.43,0017.10,0003.45
2021-10-12 06:56:00,,0816.5,5.02,0.00,29.7,28.7,00.0,38.9,31.4,13.5,0000.0,0005.46,0016.89,0003.45
2021-10-12 06:57:00,,0816.5,5.00,0.00,29.7,28.7,00.0,38.9,31.4,13.5,0000.0,0005.44,0016.04,0003.46
2021-10-12 06:58:00,,0816.5,4.99,0.00,29.7,28.7,00.0,38.9,31.5,13.5,0000.0,0005.44,0016.54,0003.45
2021-10-12 06:59:00,,0816.5,5.01,0.00,29.7,28.7,00.0,38.9,31.5,13.5,0000.0,0005.44,0018.13,0003.45
